[[{"header":{"parameterUnit":"m.s-1","parameterCategory":1,"la1":30.2991,"la2":30.254,"lo1":-89.0895,"lo2":-89.0444,"dy":0.0017,"dx":0.0017,"nx":28,"ny":28,"refTime":"2025-11-13T09:00:00:Z","depth":0,"parameterNumber":2,"parameterNumberName":"U-component_of_WINDS"},"data":[0,0,0,0,0,0,0,0,0,0,0,0,0,0,0,0,0,0,0,0,0,0,0,0,0,0,0,0,0,0,0,0,0,0,0,0,0,0,0,0,0,0,0,0,0,0,0,0,0,0,0,0,0,0,0,0,0,0,1.2678,1.2679,0,1.2741,1.2742,1.2742,1.273,1.2729,1.2728,1.2727,1.279,1.2793,1.2796,0,0,0,0,0,0,0,0,0,0,0,0,0,1.2547,1.255,1.2678,1.2679,1.268,1.2741,1.2742,1.2743,1.273,1.2729,1.2727,1.2726,1.2789,1.2792,1.2796,0,0,0,0,0,0,0,0,0,0,0,0,0,1.2606,1.2551,1.2678,1.2681,1.2682,1.2741,1.2742,1.2743,1.273,1.2729,1.2727,1.2725,1.2788,1.2792,1.2796,1.2856,0,0,1.2809,1.2811,0,0,0,0,0,0,0,0,1.2603,1.2611,1.268,1.2681,1.2682,1.2726,1.2719,1.2781,1.2731,1.2712,1.2727,1.2725,1.277,1.2776,1.2791,1.2859,1.2862,1.2809,1.2812,1.2814,1.2815,0,0,0,0,0,0,0,1.2599,1.2608,1.2703,1.2681,1.2682,1.2679,1.2685,1.273,1.275,1.2713,1.2713,1.272,1.277,1.2787,1.2792,1.2863,1.2809,1.2813,1.2815,1.2817,1.2982,1.2984,0,0,0,0,0,0,1.2594,1.2605,1.2701,1.2705,1.2638,1.2683,1.269,1.2714,1.2749,1.2753,1.2722,1.272,1.2781,1.2788,1.2795,1.2867,1.2813,1.2817,1.282,1.298,1.2982,1.2985,0,0,0,0,0,0,1.2591,1.2603,1.2699,1.2655,1.2667,1.2687,1.2713,1.2716,1.2732,1.2756,1.2759,1.2735,1.278,1.2789,1.2841,1.2869,1.2819,1.2823,1.2978,1.2981,1.2984,1.3011,0,0,0,0,0,0,1.2588,1.2602,1.2625,1.2656,1.2669,1.2744,1.2715,1.2718,1.274,1.2737,1.2769,1.2773,1.2779,1.2835,1.2845,1.2873,1.2826,1.2975,1.2979,1.2983,1.3008,1.3015,1.3021,0,0,0,0,0,1.2583,1.263,1.2626,1.2638,1.2699,1.2745,1.2753,1.276,1.2742,1.2765,1.278,1.2772,1.2864,1.284,1.2851,1.2882,1.2974,1.2978,1.2982,1.3005,1.3013,1.302,0,0,0,0,0,0,1.2602,1.2634,1.263,1.2689,1.2714,1.2743,1.2773,1.2768,1.28,1.2796,1.2803,1.281,1.2863,1.2877,1.285,1.2941,1.2916,1.2923,1.293,1.2938,1.2944,1.2939,1.283,0,0,0,0,0,1.2613,1.2649,1.2675,1.2724,1.2737,1.2753,1.2773,1.2776,1.2803,1.2814,1.2833,1.2859,1.2894,1.2917,1.295,1.301,1.3017,1.3036,1.3043,1.3048,1.3053,1.3086,1.3095,1.2999,1.2999,1.2999,0,0,1.2636,1.2658,1.268,1.2728,1.2749,1.2785,1.2762,1.2802,1.2829,1.282,1.287,1.2885,1.2914,1.2971,1.2996,1.2984,1.3082,1.3053,1.3057,1.306,1.3091,1.3101,1.3109,1.3002,1.3001,1.3001,0,0,1.2697,1.2717,1.276,1.2781,1.2812,1.2822,1.2833,1.2862,1.2872,1.2922,1.2916,1.2949,1.3009,1.303,1.3049,1.3117,1.3111,1.3128,1.3161,1.3193,1.32,1.3207,1.3231,1.324,1.3134,1.3134,1.3134,0,1.2721,1.2777,1.2783,1.2823,1.2844,1.2838,1.2882,1.2902,1.2942,1.2957,1.2943,1.3018,1.3038,1.3099,1.3115,1.3131,1.3143,1.3124,1.3199,1.3206,1.3212,1.3235,1.3244,1.3136,1.3136,1.3135,1.3135,0,1.2805,1.2844,1.2875,1.2914,1.2939,1.298,1.2993,1.3017,1.3018,1.3029,1.308,1.3104,1.3142,1.3156,1.3157,1.3218,1.3209,1.3197,1.3172,1.3223,1.3245,1.3254,1.3138,1.3138,1.3137,1.3137,0,0,1.288,1.2922,1.2933,1.2951,1.2985,1.3015,1.3056,1.3093,1.3114,1.3142,1.3176,1.3227,1.3216,1.3238,1.3241,1.3269,1.3322,1.3253,1.3254,1.3265,1.3389,1.3398,1.3408,1.3318,1.3319,1.3321,1.3387,0,1.2943,1.3017,1.3023,1.3089,1.3124,1.3119,1.3155,1.3179,1.3191,1.3223,1.3236,1.3272,1.3254,1.3267,1.3295,1.3309,1.3347,1.3305,1.335,1.3351,1.3342,1.342,1.3429,1.349,1.3395,1.3397,1.3398,0,1.3027,1.3058,1.3127,1.3156,1.3171,1.3204,1.3238,1.3269,1.3296,1.3303,1.3327,1.3326,1.3368,1.3342,1.34,1.3372,1.339,1.34,1.3403,1.3407,1.3377,1.3426,1.351,1.3519,1.3411,1.341,1.3409,0,1.3074,1.3133,1.3182,1.3197,1.3232,1.3255,1.3271,1.3297,1.3319,1.3349,1.3363,1.3398,1.3417,1.3444,1.3452,1.3432,1.351,1.3485,1.3517,1.3517,1.3533,1.3532,1.3621,1.3546,1.3546,1.3545,1.3545,0,1.3145,1.3187,1.3204,1.3234,1.3281,1.3288,1.3335,1.3349,1.3373,1.3405,1.3403,1.3433,1.3443,1.3475,1.3482,1.3529,1.3538,1.3544,1.3546,1.3545,1.3544,1.3557,1.3553,1.3548,1.3547,1.3547,1.3546,0,1.3205,1.3218,1.3271,1.33,1.3308,1.3342,1.3366,1.3395,1.3406,1.3448,1.3458,1.3476,1.3513,1.3525,1.357,1.3575,1.363,1.3628,1.3621,1.3621,1.3652,1.3649,1.3753,1.3767,1.3682,1.3683,1.3684,0,1.3249,1.3281,1.3314,1.3336,1.3352,1.3387,1.341,1.3418,1.3442,1.3476,1.3501,1.3538,1.3568,1.3629,1.3646,1.3681,1.3679,1.3713,1.3684,1.3682,1.3679,1.3677,1.368,1.3718,1.3719,1.372,1.372,0,1.3325,1.333,1.3363,1.3398,1.3424,1.3452,1.3479,1.3497,1.3509,1.3536,1.3574,1.3598,1.3645,1.3682,1.3717,1.3733,1.3729,1.3729,1.3739,1.3738,1.3732,1.3735,1.3636,1.3727,1.3726,1.3726,1.3725,1.3725,1.3378,1.3407,1.3435,1.3471,1.3492,1.3517,1.3546,1.3561,1.3593,1.3632,1.3635,1.3677,1.3704,1.3751,1.3768,1.3801,1.3791,1.3805,1.3808,1.3811,1.3814,1.3727,1.3808,1.3807,1.3807,1.3807,1.3807,0,1.3454,1.3472,1.3505,1.3543,1.3572,1.3566,1.3595,1.3619,1.3656,1.3682,1.3712,1.3756,1.3792,1.3812,1.3848,1.387,1.3869,1.3879,1.3878,1.3881,1.382,1.3809,1.388,1.3879,1.3879,1.3879,1.3879,1.3879,1.3497,1.3546,1.3554,1.3612,1.3629,1.3671,1.3688,1.3711,1.3731,1.3781,1.3811,1.3824,1.3847,1.3885,1.3917,1.3922,1.3935,1.3947,1.395,1.3893,1.3886,1.3878,1.3868,1.3949,1.395,1.4008,1.4009,1.4009]},{"header":{"parameterUnit":"m.s-1","parameterCategory":1,"la1":30.2991,"la2":30.254,"lo1":-89.0895,"lo2":-89.0444,"dy":0.0017,"dx":0.0017,"nx":28,"ny":28,"refTime":"2025-11-13T09:00:00:Z","depth":0,"parameterNumber":3,"parameterNumberName":"V-component_of_WINDS"},"data":[0,0,0,0,0,0,0,0,0,0,0,0,0,0,0,0,0,0,0,0,0,0,0,0,0,0,0,0,0,0,0,0,0,0,0,0,0,0,0,0,0,0,0,0,0,0,0,0,0,0,0,0,0,0,0,0,0,0,0.4416,0.4415,0,0.4358,0.4358,0.4357,0.433,0.433,0.433,0.433,0.4269,0.4267,0.4266,0,0,0,0,0,0,0,0,0,0,0,0,0,0.4499,0.4498,0.4416,0.4415,0.4414,0.4358,0.4358,0.4357,0.433,0.433,0.433,0.433,0.427,0.4268,0.4266,0,0,0,0,0,0,0,0,0,0,0,0,0,0.4455,0.4498,0.4416,0.4394,0.4392,0.4358,0.4357,0.4356,0.433,0.433,0.433,0.433,0.427,0.4268,0.4265,0.4248,0,0,0.4258,0.4257,0,0,0,0,0,0,0,0,0.4457,0.4452,0.4398,0.4396,0.4393,0.4351,0.4365,0.432,0.433,0.4353,0.433,0.433,0.4296,0.4292,0.4281,0.4246,0.4243,0.4257,0.4256,0.4255,0.4254,0,0,0,0,0,0,0,0.446,0.4454,0.4393,0.4397,0.4394,0.4387,0.438,0.4356,0.4325,0.4351,0.4349,0.4343,0.4295,0.4283,0.4279,0.4242,0.4258,0.4255,0.4254,0.4253,0.4188,0.4188,0,0,0,0,0,0,0.4467,0.4457,0.4395,0.4391,0.4426,0.4385,0.4378,0.4365,0.4325,0.4319,0.4343,0.4342,0.4287,0.4282,0.4277,0.4253,0.4255,0.4253,0.4251,0.4189,0.4188,0.4188,0,0,0,0,0,0,0.4469,0.4462,0.4397,0.4423,0.4414,0.4384,0.4369,0.4363,0.4352,0.4319,0.4313,0.4337,0.4287,0.428,0.4255,0.4251,0.4251,0.4249,0.4189,0.4189,0.4188,0.4207,0,0,0,0,0,0,0.4472,0.4463,0.4457,0.4423,0.4413,0.4378,0.4368,0.4362,0.4348,0.4346,0.4312,0.4306,0.4287,0.4259,0.4253,0.4247,0.4247,0.4189,0.4189,0.4188,0.4207,0.4208,0.4208,0,0,0,0,0,0.4475,0.4464,0.4457,0.4449,0.4405,0.4378,0.4372,0.435,0.4348,0.4341,0.4319,0.4307,0.4253,0.4257,0.425,0.4243,0.4189,0.4189,0.4188,0.4206,0.4207,0.4208,0,0,0,0,0,0,0.4497,0.4459,0.4451,0.4429,0.4407,0.4373,0.4364,0.4352,0.4329,0.4328,0.4302,0.4295,0.4272,0.4255,0.4261,0.4224,0.422,0.4218,0.4236,0.4237,0.4237,0.4242,0.4245,0,0,0,0,0,0.45,0.4482,0.4449,0.4433,0.4422,0.4395,0.4382,0.4368,0.4343,0.4333,0.431,0.4286,0.4263,0.4249,0.4226,0.4204,0.4196,0.4196,0.4197,0.4197,0.4196,0.4182,0.4181,0.4187,0.4187,0.4187,0,0,0.4505,0.4482,0.4472,0.4437,0.4418,0.4399,0.4387,0.4368,0.4352,0.433,0.4305,0.4288,0.4259,0.4235,0.4223,0.422,0.4192,0.4197,0.4198,0.4196,0.4181,0.4181,0.418,0.4186,0.4186,0.4186,0,0,0.4504,0.4485,0.4469,0.4451,0.4422,0.4404,0.44,0.4368,0.4355,0.433,0.4313,0.4294,0.4256,0.4236,0.422,0.4211,0.4198,0.4204,0.4207,0.4194,0.4193,0.4193,0.4189,0.4187,0.4203,0.4203,0.4203,0,0.4514,0.4485,0.4463,0.4444,0.4428,0.4408,0.4391,0.4373,0.4339,0.4328,0.4325,0.4276,0.4255,0.4226,0.4224,0.4212,0.4206,0.4208,0.4195,0.4195,0.4194,0.4189,0.4188,0.4204,0.4203,0.4203,0.4203,0,0.4497,0.4477,0.4468,0.4435,0.4419,0.4401,0.4375,0.4361,0.4348,0.4329,0.4303,0.4278,0.4249,0.4241,0.4228,0.4209,0.4208,0.4201,0.4196,0.4194,0.419,0.4188,0.4205,0.4204,0.4204,0.4204,0,0,0.4509,0.4465,0.4461,0.4446,0.4413,0.4396,0.4377,0.4349,0.4337,0.4314,0.4296,0.4263,0.4256,0.4239,0.4223,0.4211,0.4204,0.4205,0.4204,0.4205,0.4181,0.4186,0.4185,0.4195,0.4195,0.4195,0.4183,0,0.4503,0.4469,0.4448,0.4421,0.4402,0.4381,0.4364,0.4341,0.4323,0.4303,0.4283,0.426,0.4253,0.4242,0.423,0.4208,0.4199,0.4208,0.4178,0.4177,0.4185,0.4182,0.4188,0.4179,0.4181,0.4181,0.4181,0,0.4492,0.4469,0.4441,0.4409,0.44,0.4385,0.4357,0.4339,0.4312,0.43,0.428,0.4264,0.4241,0.4238,0.4206,0.4213,0.4199,0.4186,0.4185,0.4181,0.4178,0.4178,0.4175,0.4173,0.4178,0.4178,0.4178,0,0.4502,0.4465,0.4443,0.443,0.4392,0.4382,0.4366,0.4339,0.4323,0.4299,0.4289,0.4262,0.4247,0.4226,0.4202,0.4202,0.4172,0.4167,0.416,0.4161,0.4154,0.4155,0.4149,0.4146,0.4146,0.4146,0.4146,0,0.4498,0.4481,0.4447,0.4433,0.4413,0.4389,0.437,0.4352,0.4328,0.4309,0.429,0.4273,0.4243,0.4222,0.4203,0.4178,0.4172,0.416,0.4155,0.4162,0.4163,0.4152,0.4152,0.4146,0.4146,0.4146,0.4146,0,0.4506,0.4483,0.4458,0.4424,0.4415,0.4402,0.4372,0.4357,0.4338,0.4315,0.4308,0.4278,0.4252,0.4226,0.4191,0.4179,0.4154,0.4148,0.4163,0.4161,0.4155,0.4155,0.4141,0.4137,0.4138,0.4138,0.4138,0,0.4505,0.4491,0.4456,0.4443,0.4427,0.4406,0.439,0.4365,0.4349,0.4317,0.4306,0.4278,0.4255,0.4214,0.4188,0.4161,0.4153,0.415,0.4149,0.4155,0.4152,0.4153,0.4151,0.4151,0.4151,0.4151,0.4151,0,0.4504,0.4493,0.4471,0.4445,0.4427,0.4405,0.4382,0.4372,0.4343,0.4326,0.4299,0.4281,0.4245,0.4218,0.4187,0.4169,0.4154,0.4151,0.4148,0.4154,0.4164,0.4158,0.4165,0.4152,0.4152,0.4152,0.4152,0.4152,0.4507,0.4494,0.4467,0.4443,0.4423,0.4402,0.4387,0.4366,0.4344,0.4313,0.4299,0.4272,0.4244,0.4202,0.4183,0.4161,0.4157,0.4153,0.4152,0.4151,0.4152,0.4168,0.4155,0.4155,0.4155,0.4155,0.4155,0,0.4505,0.4486,0.4465,0.4434,0.4414,0.4404,0.4377,0.4362,0.4339,0.4314,0.4292,0.426,0.4233,0.4205,0.4176,0.4164,0.4156,0.4157,0.4157,0.4153,0.4157,0.4163,0.4163,0.4163,0.4163,0.4163,0.4163,0.4163,0.4501,0.4478,0.4464,0.443,0.4411,0.4385,0.4371,0.4351,0.4332,0.4298,0.4276,0.4258,0.4231,0.42,0.4174,0.4167,0.4156,0.4159,0.4149,0.4153,0.4153,0.4152,0.4157,0.4157,0.4157,0.4147,0.4147,0.4147]}]]